Gonzales, LA

10:23 PM CDT on July 20, 2017 (GMT -0500)
Gonzales

Weather History for KL38 - March, 2013

Change the Weather History Date:

Saturday, March 2, 2013

  Actual Average (KBTR) Record (KBTR)
Temperature  
Mean Temperature 40 °F -  
Max Temperature 47 °F 69 °F 93 °F (1909)
Min Temperature 31 °F 49 °F 22 °F (1980)
Degree Days  
Heating Degree Days 26    
Moisture  
Dew Point 29 °F    
Average Humidity 66    
Maximum Humidity 98    
Minimum Humidity 46    
Precipitation  
Precipitation 0.00 in - - ()
Sea Level Pressure  
Sea Level Pressure 30.22 in    
Wind  
Wind Speed 4 mph (NNW)    
Max Wind Speed 18 mph    
Max Gust Speed 24 mph    
Visibility 10 miles    
Events      
Averages and records for this station are not official NWS values.
T = Trace of Precipitation, MM = Missing Value Source: NWS Daily Summary

Daily Weather History Graph

Daily Weather History Graph

Search for Another Location

Airport or City:

Trip Planner

Search our weather history database for the weather conditions in past years. The results will help you decide how hot, cold, wet, or windy it might be!

Date:

Astronomy

Mar. 02, 2013 Rise Set
Actual Time 6:28 AM CST 6:03 PM CST
Civil Twilight 6:04 AM CST 6:27 PM CST
Nautical Twilight 5:36 AM CST 6:55 PM CST
Astronomical Twilight 5:08 AM CST 7:23 PM CST
Moon 11:16 PM CST (3/2) 9:21 AM CST (3/2)
Length of Visible Light 12h 23m
Length of Day
11h 35m
Waning Gibbous, 74% of the Moon is Illuminated
Mar 2
Waning Gibbous
Mar 4
Last Quarter
Mar 11
New
Mar 19
First Quarter
Mar 27
Full

Hourly Weather History & Observations

Time (CST) Temp. Windchill Dew Point Humidity Pressure Visibility Wind Dir Wind Speed Gust Speed Precip Events Conditions
12:15 AM 43.0 °F - 32.0 °F 65% 30.18 in 10.0 mi Calm Calm - N/A   Clear
12:35 AM 41.2 °F - 32.5 °F 71% 30.18 in 10.0 mi Calm Calm - N/A   Clear
12:55 AM 40.1 °F - 33.8 °F 78% 30.18 in 10.0 mi Calm Calm - N/A   Clear
1:15 AM 39.6 °F - 33.8 °F 80% 30.18 in 10.0 mi Calm Calm - N/A   Clear
1:35 AM 38.8 °F - 32.9 °F 79% 30.18 in 10.0 mi Calm Calm - N/A   Clear
1:55 AM 36.3 °F 33.7 °F 32.4 °F 86% 30.18 in 10.0 mi NNW 3.5 mph - N/A   Clear
2:15 AM 37.9 °F 35.5 °F 33.3 °F 83% 30.18 in 10.0 mi North 3.5 mph - N/A   Clear
2:35 AM 39.0 °F 35.7 °F 32.2 °F 76% 30.17 in 10.0 mi North 4.6 mph - N/A   Clear
2:55 AM 38.7 °F 36.3 °F 32.0 °F 77% 30.17 in 10.0 mi North 3.5 mph - N/A   Clear
3:15 AM 37.9 °F 34.4 °F 32.0 °F 79% 30.18 in 10.0 mi North 4.6 mph - N/A   Clear
3:55 AM 36.9 °F 34.3 °F 31.6 °F 81% 30.19 in 10.0 mi North 3.5 mph - N/A   Clear
4:15 AM 36.9 °F 34.3 °F 31.6 °F 81% 30.19 in 10.0 mi North 3.5 mph - N/A   Clear
4:35 AM 36.5 °F - 31.6 °F 83% 30.19 in 10.0 mi Calm Calm - N/A   Clear
4:55 AM 36.0 °F - 32.0 °F 86% 30.20 in 10.0 mi Calm Calm - N/A   Clear
5:15 AM 34.9 °F - 32.0 °F 89% 30.20 in 10.0 mi North - - N/A   Clear
6:15 AM 32.5 °F - 32.0 °F 98% 30.21 in 10.0 mi North - - N/A   Clear
6:35 AM 32.9 °F - 32.0 °F 96% 30.21 in 10.0 mi North - - N/A   Clear
6:55 AM 33.4 °F - 31.8 °F 94% 30.21 in 10.0 mi Calm Calm - N/A   Clear
7:15 AM 35.6 °F - 31.8 °F 86% 30.21 in 10.0 mi Calm Calm - N/A   Clear
7:35 AM 37.0 °F - 31.8 °F 81% 30.22 in 10.0 mi Calm Calm - N/A   Clear
7:55 AM 38.5 °F 36.1 °F 31.3 °F 75% 30.23 in 10.0 mi North 3.5 mph - N/A   Clear
8:15 AM 40.3 °F - 30.2 °F 67% 30.23 in 10.0 mi Calm Calm - N/A   Clear
8:35 AM 42.1 °F - 29.3 °F 61% 30.24 in 10.0 mi Calm Calm - N/A   Clear
8:55 AM 43.2 °F 38.4 °F 25.2 °F 49% 30.24 in 10.0 mi North 8.1 mph - N/A   Clear
9:15 AM 44.4 °F 40.0 °F 27.1 °F 51% 30.24 in 10.0 mi NNW 8.1 mph - N/A   Clear
9:35 AM 44.8 °F 41.6 °F 26.6 °F 49% 30.24 in 10.0 mi NNW 5.8 mph - N/A   Clear
9:55 AM 45.3 °F 43.0 °F 26.8 °F 48% 30.23 in 10.0 mi NNE 4.6 mph - N/A   Clear
10:15 AM 45.9 °F 42.3 °F 26.6 °F 47% 30.23 in 10.0 mi NNW 6.9 mph 18.4 mph N/A   Scattered Clouds
10:35 AM 46.4 °F 42.9 °F 26.8 °F 46% 30.23 in 10.0 mi North 6.9 mph - N/A   Scattered Clouds
10:55 AM 46.8 °F - 27.1 °F 46% 30.23 in 10.0 mi NNW 8.1 mph 11.5 mph N/A   Clear
11:15 AM 46.4 °F 41.1 °F 27.0 °F 47% 30.23 in 10.0 mi WNW 11.5 mph 16.1 mph N/A   Scattered Clouds
11:35 AM 47.1 °F - 27.7 °F 47% 30.22 in 10.0 mi NW 6.9 mph - N/A   Mostly Cloudy
11:55 AM 47.8 °F - 28.6 °F 47% 30.21 in 10.0 mi NW 9.2 mph - N/A   Overcast
12:15 PM 46.8 °F - 29.1 °F 50% 30.21 in 10.0 mi NNW 13.8 mph 17.3 mph N/A   Mostly Cloudy
12:35 PM 46.6 °F - 29.8 °F 52% 30.20 in 10.0 mi NW 13.8 mph 18.4 mph N/A   Mostly Cloudy
12:55 PM 46.4 °F 41.9 °F 28.8 °F 50% 30.19 in 10.0 mi NW 9.2 mph 19.6 mph N/A   Overcast
1:15 PM 46.9 °F - 28.9 °F 50% 30.18 in 10.0 mi NNW 13.8 mph 20.7 mph N/A   Overcast
1:35 PM 45.7 °F 40.6 °F 28.6 °F 51% 30.18 in 10.0 mi NW 10.4 mph 18.4 mph N/A   Mostly Cloudy
1:55 PM 46.4 °F 40.4 °F 29.5 °F 52% 30.18 in 10.0 mi NNW 13.8 mph 19.6 mph N/A   Mostly Cloudy
2:15 PM 45.9 °F 40.8 °F 28.9 °F 52% 30.18 in 10.0 mi NW 10.4 mph 19.6 mph N/A   Overcast
2:35 PM 45.7 °F 41.0 °F 28.8 °F 52% 30.18 in 10.0 mi NW 9.2 mph 16.1 mph N/A   Overcast
2:55 PM 45.0 °F 38.5 °F 28.6 °F 53% 30.18 in 10.0 mi NW 13.8 mph 20.7 mph N/A   Overcast
3:15 PM 44.8 °F 39.4 °F 28.8 °F 53% 30.17 in 10.0 mi NW 10.4 mph - N/A   Overcast
3:35 PM 44.1 °F 37.4 °F 28.6 °F 55% 30.18 in 10.0 mi NNW 13.8 mph 17.3 mph N/A   Overcast
3:55 PM 44.2 °F 38.4 °F 27.3 °F 51% 30.18 in 10.0 mi NNW 11.5 mph 20.7 mph N/A   Overcast
4:15 PM 44.1 °F 38.1 °F 26.6 °F 50% 30.19 in 10.0 mi NW 11.5 mph 19.6 mph N/A   Overcast
4:35 PM 43.7 °F 38.1 °F 26.4 °F 51% 30.20 in 10.0 mi WNW 10.4 mph 17.3 mph N/A   Mostly Cloudy
4:55 PM 44.1 °F 36.2 °F 25.9 °F 49% 30.20 in 10.0 mi NW 18.4 mph 24.2 mph N/A   Overcast
5:15 PM 42.4 °F 35.3 °F 25.7 °F 52% 30.21 in 10.0 mi NNW 13.8 mph 18.4 mph N/A   Mostly Cloudy
5:35 PM 41.5 °F 34.6 °F 25.7 °F 53% 30.22 in 10.0 mi NW 12.7 mph - N/A   Scattered Clouds
5:55 PM 41.0 °F 34.3 °F 25.5 °F 54% 30.22 in 10.0 mi NNW 11.5 mph 16.1 mph N/A   Scattered Clouds
6:15 PM 40.3 °F 34.9 °F 25.3 °F 55% 30.23 in 10.0 mi NNW 8.1 mph - N/A   Scattered Clouds
6:35 PM 39.9 °F 35.1 °F 25.5 °F 56% 30.24 in 10.0 mi NNW 6.9 mph - N/A   Clear
6:55 PM 39.4 °F 35.2 °F 25.9 °F 58% 30.25 in 10.0 mi NNW 5.8 mph - N/A   Clear
7:15 PM 39.2 °F 35.0 °F 25.7 °F 58% 30.26 in 10.0 mi NNW 5.8 mph - N/A   Clear
7:35 PM 38.8 °F 36.5 °F 25.7 °F 59% 30.26 in 10.0 mi North 3.5 mph - N/A   Clear
7:55 PM 39.0 °F 35.7 °F 25.3 °F 58% 30.26 in 10.0 mi North 4.6 mph - N/A   Clear
8:15 PM 37.8 °F 35.3 °F 26.1 °F 63% 30.27 in 10.0 mi NNW 3.5 mph - N/A   Clear
8:35 PM 37.4 °F - 26.2 °F 64% 30.27 in 10.0 mi Calm Calm - N/A   Clear
8:55 PM 37.4 °F - 25.9 °F 63% 30.28 in 10.0 mi Calm Calm - N/A   Clear
9:15 PM 37.0 °F - 26.6 °F 66% 30.28 in 10.0 mi Calm Calm - N/A   Clear
9:35 PM 35.1 °F - 28.2 °F 76% 30.28 in 10.0 mi Calm Calm - N/A   Clear
9:55 PM 34.7 °F - 29.8 °F 82% 30.27 in 10.0 mi North - - N/A   Clear
10:15 PM 33.8 °F - 30.9 °F 89% 30.27 in 10.0 mi Calm Calm - N/A   Clear
10:35 PM 33.3 °F - 28.6 °F 83% 30.27 in 10.0 mi Calm Calm - N/A   Clear
10:55 PM 32.5 °F - 28.9 °F 87% 30.27 in 10.0 mi Calm Calm - N/A   Clear
11:15 PM 32.4 °F - 30.0 °F 91% 30.27 in 10.0 mi Calm Calm - N/A   Clear
11:35 PM 32.0 °F - 28.9 °F 88% 30.27 in 10.0 mi Calm Calm - N/A   Clear
11:55 PM 31.6 °F - 28.9 °F 90% 30.27 in 10.0 mi Calm Calm - N/A   Clear